GFSMA_sfc_30mbdewp_024.txt.gz
Dewpoint
60 58 56 55 56 53 52 51 49 46 45 45 45 44 42 41 41 42 47 49 49 48 46 46 46 46 46 46 46 46 46 47 48 50 51 53 55 57 59 60 60 60 59
58 56 57 55 54 51 49 49 48 46 44 43 41 42 41 39 40 42 40 47 47 47 46 45 43 42 41 40 40 41 42 44 44 45 46 48 51 52 54 56 59 60 60
59 56 55 54 52 49 47 47 45 44 42 41 41 40 39 38 37 38 40 37 47 47 46 42 39 37 38 37 37 38 39 39 43 44 44 45 48 49 50 52 53 56 60
55 54 53 51 49 49 45 44 44 44 43 43 42 40 39 38 34 35 36 35 43 43 44 41 36 34 36 35 35 36 37 38 39 41 42 43 43 44 46 48 50 52 54
50 50 48 49 47 46 45 45 46 45 44 42 39 34 37 35 36 33 32 33 36 40 39 41 38 35 35 34 34 34 35 38 40 40 41 41 42 42 42 42 45 48 51
47 47 48 46 45 45 45 45 45 45 43 38 33 31 36 37 33 34 34 34 36 34 35 33 33 34 35 32 32 32 35 36 37 39 39 39 39 40 40 40 41 43 47
43 43 45 45 45 44 44 42 40 39 39 38 35 34 33 32 32 29 31 31 31 29 32 35 31 31 30 30 29 30 31 36 37 36 36 35 36 37 38 38 39 41 43
43 43 43 43 43 42 39 40 38 38 38 37 33 32 30 29 29 30 30 29 27 30 30 28 28 29 29 28 27 26 28 33 31 31 31 32 33 35 36 37 38 39 41
43 42 41 41 40 39 38 39 38 37 36 34 34 32 29 28 30 30 26 26 25 27 27 27 24 26 24 25 23 27 32 30 28 28 28 28 29 31 34 36 37 38 39
40 37 35 37 40 40 39 40 36 38 36 33 33 33 32 31 26 23 23 21 22 21 22 25 23 24 23 24 24 27 29 30 30 28 27 27 27 28 32 34 36 37 38
28 27 29 33 34 34 38 39 39 37 36 34 34 32 29 28 26 23 19 20 20 22 22 23 25 24 23 24 24 23 31 32 26 24 24 25 26 27 30 33 36 37 37
27 29 30 32 34 35 36 39 38 38 37 38 37 32 28 25 22 23 21 21 21 21 23 23 24 24 26 24 21 24 27 26 25 22 22 23 23 27 29 31 38 39 40
26 29 29 31 33 35 36 38 38 37 38 38 36 31 28 28 26 25 25 24 23 24 23 22 23 24 22 23 22 25 24 25 26 23 22 23 23 25 29 30 35 37 38
27 27 30 31 32 34 35 37 38 37 38 38 35 35 31 31 29 27 25 24 23 22 22 23 23 23 22 21 22 24 23 24 26 28 28 25 25 25 25 29 32 36 37
25 28 29 30 30 31 34 33 39 39 39 37 35 34 33 32 30 29 29 26 23 21 20 21 22 22 22 20 20 22 23 23 26 26 26 28 28 26 26 29 33 36 36
28 29 29 29 30 30 30 33 35 34 34 35 35 35 35 33 29 30 28 26 24 22 20 20 20 21 21 20 21 22 22 21 22 24 25 26 28 28 28 32 34 35 36
28 27 28 28 28 29 29 31 32 32 32 33 34 34 35 31 28 27 26 24 22 21 19 18 18 20 20 21 21 21 21 20 20 22 24 25 28 30 33 33 33 33 34
28 27 27 27 28 28 29 31 32 30 30 30 28 29 28 26 26 26 24 21 21 19 17 16 19 20 20 21 21 21 20 20 20 20 24 26 32 33 36 35 34 33 34
27 28 27 28 28 28 30 30 30 28 28 28 29 28 27 26 24 22 21 18 18 18 19 18 17 18 19 19 19 20 21 23 23 21 19 23 32 34 36 35 34 33 33
28 28 28 28 28 27 27 29 28 28 29 28 28 27 25 23 19 18 16 16 16 18 17 17 17 17 17 18 20 20 20 20 21 21 22 27 29 34 35 34 34 33 35
28 28 27 27 27 28 29 30 28 27 28 26 26 24 21 16 17 17 15 17 19 19 18 16 17 18 18 16 15 20 23 23 23 22 25 29 28 32 34 33 31 31 33
27 27 27 27 28 29 27 25 22 22 24 23 22 20 18 17 20 19 20 20 20 18 17 19 20 19 18 19 22 20 20 19 19 23 22 22 26 27 31 32 30 30 31
27 27 28 27 26 29 27 23 20 21 23 23 21 19 18 16 21 20 19 18 18 18 19 19 18 19 23 20 17 16 15 16 17 18 19 17 19 20 22 20 26 26 29
26 27 27 27 26 29 27 23 20 19 24 23 21 20 19 18 20 19 18 17 17 16 15 15 14 14 16 17 18 19 19 19 19 19 18 16 19 23 22 22 25 26 27
26 28 27 26 25 27 26 23 19 22 24 23 22 21 20 17 20 18 17 17 16 14 15 13 12 15 18 21 21 21 21 20 19 19 19 19 22 24 24 22 23 23 28
27 27 26 26 25 29 26 23 20 23 23 23 22 20 18 17 17 18 17 17 16 17 15 13 16 20 19 20 21 27 26 22 22 21 20 22 24 26 19 22 25 27 27

GFSMA_sfc_30mbdewp_027.txt.gz
Dewpoint
55 55 56 54 53 51 49 48 47 45 42 41 42 41 40 39 40 41 48 48 48 47 47 47 46 45 43 42 41 42 43 43 45 46 47 47 49 51 52 53 54 55 59
57 57 55 54 50 48 47 46 44 44 42 41 41 41 39 40 36 35 41 47 49 48 47 45 42 41 40 39 39 40 41 41 41 44 44 46 46 46 47 49 50 52 54
57 54 53 50 48 49 45 43 45 44 44 44 42 41 40 36 34 34 36 35 48 49 46 42 38 39 38 38 38 38 38 38 40 41 42 43 44 44 45 45 45 47 50
54 54 51 47 47 47 46 45 45 44 44 43 41 37 37 35 36 33 33 34 45 46 46 41 37 37 37 36 37 36 37 39 40 39 42 43 42 41 42 42 43 43 44
52 49 48 45 45 46 46 45 44 45 43 42 35 32 34 36 32 33 33 33 34 41 43 44 41 39 35 35 35 35 36 36 36 40 42 39 38 38 39 40 41 41 42
45 48 46 44 45 45 44 41 41 40 42 38 36 35 36 34 32 30 30 31 30 30 36 33 31 33 34 32 32 32 33 33 36 37 36 36 36 36 36 37 38 40 40
44 44 44 45 43 42 40 40 39 38 36 39 34 31 30 33 29 31 31 28 27 29 30 30 30 30 31 31 29 29 29 33 31 31 31 31 31 32 32 33 36 37 39
43 43 43 42 40 38 38 39 38 36 39 36 31 32 30 30 31 30 29 26 26 27 27 27 26 28 29 25 24 22 23 31 26 25 25 27 28 29 30 31 34 35 37
42 42 41 40 39 39 38 38 38 38 35 34 34 32 30 29 29 29 24 25 23 22 24 24 24 25 25 24 24 24 29 31 29 29 28 27 27 28 28 29 31 33 35
37 32 32 33 33 36 36 40 39 38 36 34 33 35 31 31 25 24 24 22 22 21 22 24 26 25 25 26 27 31 31 31 29 26 25 25 25 26 26 27 29 31 33
29 30 32 31 32 34 35 36 38 38 37 35 36 34 31 28 27 22 21 22 23 23 24 25 25 24 26 23 22 22 30 27 27 23 23 24 24 25 25 25 27 29 30
30 31 29 31 32 34 35 37 39 37 37 37 36 35 33 27 24 24 23 23 23 24 25 25 24 24 26 22 23 25 30 29 27 24 23 24 25 25 25 26 27 29 29
27 27 28 30 31 33 35 38 37 37 37 36 36 34 33 30 29 27 26 25 24 24 25 25 24 25 24 23 23 27 26 25 27 24 24 24 25 25 25 24 26 27 29
27 29 29 29 30 31 31 36 37 37 37 37 37 36 35 33 32 31 28 26 24 23 23 22 25 24 24 24 24 25 23 26 26 27 25 23 22 23 23 25 27 28 27
26 28 29 29 30 30 30 31 33 38 38 38 37 36 34 34 35 35 32 29 26 22 21 21 21 23 24 21 22 23 23 23 25 26 25 24 23 23 24 25 26 27 28
27 28 28 29 29 29 30 31 33 33 33 34 35 35 36 35 35 35 31 27 25 24 21 21 20 20 21 21 21 22 22 22 23 25 25 27 26 24 26 26 28 27 30
27 28 27 27 27 28 30 31 32 31 31 32 32 34 34 34 33 32 27 24 21 19 17 18 19 21 20 20 21 22 22 21 21 23 25 26 26 27 30 31 33 33 31
28 27 28 27 28 29 30 31 31 30 28 28 29 28 28 27 26 26 22 19 17 18 18 17 18 18 19 20 20 20 19 21 22 23 24 25 24 26 31 33 34 35 35
28 28 27 27 28 29 29 31 30 28 28 29 29 28 27 25 24 20 18 16 17 17 18 18 17 18 19 19 19 20 21 22 23 21 21 23 26 28 31 32 33 35 35
29 28 28 28 28 29 31 30 29 29 29 29 28 27 25 21 17 16 15 15 17 18 18 18 17 17 18 19 20 19 21 24 23 22 23 24 27 26 27 32 33 34 34
28 28 28 28 28 31 30 29 26 26 24 24 25 24 20 18 19 17 15 16 18 18 18 18 17 18 19 19 19 24 21 19 18 19 20 24 22 25 27 32 33 34 35
27 29 29 28 29 29 29 26 23 22 23 23 22 20 19 19 21 22 22 21 21 20 19 19 19 18 18 20 24 20 18 16 14 17 20 18 20 21 21 27 30 33 33
27 28 29 29 27 29 28 25 20 21 21 24 22 20 19 22 20 19 19 18 17 17 18 18 16 14 14 15 17 17 17 18 18 19 19 18 19 18 21 21 24 27 28
27 27 28 28 29 29 28 24 20 19 23 24 22 21 20 20 20 18 17 16 16 17 16 16 16 14 15 17 19 20 20 20 20 21 21 18 19 20 23 25 26 27 27
26 27 28 28 28 29 28 24 20 22 24 24 23 22 22 19 20 19 17 16 16 17 16 16 15 18 20 22 21 23 23 23 20 19 20 20 20 22 23 24 26 25 26
28 29 26 26 27 27 28 25 21 21 22 23 23 21 19 18 18 19 19 16 15 15 17 16 17 18 20 21 23 22 22 22 22 21 20 21 21 23 21 23 25 28 29

GFSMA_sfc_30mbdewp_030.txt.gz
Dewpoint
55 55 54 52 50 49 48 45 45 42 42 41 42 40 40 39 36 38 43 49 49 49 47 48 47 45 44 43 43 43 43 42 43 44 45 45 45 46 46 46 47 48 50
57 55 53 50 48 47 46 44 44 43 43 43 42 40 40 36 35 34 37 39 48 49 48 47 44 43 41 41 41 41 40 40 42 43 42 44 44 43 43 44 45 45 46
55 54 50 48 48 47 45 45 45 44 43 43 40 37 37 36 35 33 35 35 45 50 48 43 39 41 39 39 39 38 39 41 41 39 44 43 41 41 41 41 42 43 44
55 52 48 46 47 47 46 45 44 43 43 42 36 33 34 36 33 31 31 34 42 46 47 41 39 39 38 38 38 38 38 38 38 41 43 40 38 38 39 39 39 40 41
53 48 46 45 47 45 44 43 42 41 41 38 36 35 37 34 32 32 30 30 31 37 44 39 37 37 36 36 36 36 36 36 35 38 37 36 37 36 35 36 36 37 39
49 47 46 45 44 41 39 39 37 38 39 38 36 31 32 33 31 31 29 28 29 33 31 30 31 35 34 32 30 30 31 31 34 32 32 33 32 32 32 33 34 35 37
45 44 44 42 41 39 38 39 38 36 36 37 33 32 31 33 31 31 28 27 24 26 26 27 29 30 31 29 26 25 25 26 30 28 28 27 28 29 30 31 32 33 34
44 43 42 41 40 38 37 37 38 36 38 35 32 33 29 30 30 29 26 27 23 24 23 24 25 26 28 25 27 28 27 24 25 26 27 27 27 28 28 28 29 30 32
42 42 41 40 40 40 39 39 39 37 35 35 34 31 29 28 29 28 25 24 22 22 24 25 25 24 25 25 29 30 30 32 29 27 27 27 27 27 27 27 27 28 29
37 35 33 33 33 34 34 36 39 38 37 34 34 34 32 30 26 25 24 22 23 22 24 25 25 25 25 23 24 25 29 29 27 24 24 25 26 27 27 27 26 26 27
33 32 31 32 34 35 35 35 37 38 37 35 35 35 33 30 28 25 21 21 24 25 25 26 25 25 25 25 22 23 28 31 29 25 24 25 25 26 26 26 25 26 27
32 31 32 32 31 33 35 36 38 37 37 37 36 36 34 31 26 24 23 23 24 25 25 25 24 24 25 25 26 28 31 29 26 25 25 25 25 25 25 25 25 26 26
29 28 30 30 31 32 32 36 37 36 36 36 36 35 34 32 30 28 27 26 24 25 25 25 24 24 25 26 26 28 27 27 26 25 24 25 24 23 23 24 25 25 26
29 29 29 29 30 30 29 31 33 35 37 37 37 36 35 34 33 31 32 32 30 27 24 23 24 25 25 24 24 25 24 24 22 23 23 22 22 22 23 24 25 26 27
29 30 29 28 29 29 29 31 32 34 38 36 35 35 35 35 35 36 36 36 31 26 23 22 21 22 22 22 22 23 22 23 22 23 23 24 23 24 24 24 24 26 27
28 28 28 28 27 27 29 31 32 32 32 33 34 34 35 36 36 35 34 30 28 26 24 21 19 20 21 19 20 21 22 21 22 23 24 23 24 25 25 24 26 27 29
28 28 28 27 27 28 29 31 31 31 30 32 31 32 35 34 34 33 30 25 20 19 17 18 19 20 19 19 20 21 21 21 21 23 21 23 24 24 26 25 26 30 31
29 28 28 27 27 28 28 30 31 31 28 27 29 29 29 32 28 26 22 19 17 17 17 15 17 17 18 19 19 20 20 20 22 22 21 21 21 24 27 28 31 31 31
28 29 27 27 27 28 28 30 32 31 29 29 29 28 27 26 24 22 19 17 17 17 18 18 17 18 18 18 19 20 21 21 23 20 18 17 18 25 25 25 25 31 31
29 29 28 28 29 29 29 30 29 29 29 29 29 27 25 23 18 17 16 15 16 17 18 18 18 18 17 18 20 20 20 22 20 18 17 18 19 23 19 23 24 30 32
29 29 29 30 30 30 31 30 28 27 25 24 24 21 20 20 21 18 16 17 18 18 18 17 18 18 18 18 19 20 22 18 16 17 17 20 19 20 22 23 23 29 28
25 27 27 30 29 30 29 30 27 24 23 23 22 20 19 21 21 23 23 22 20 17 16 18 18 16 16 14 15 16 17 16 16 18 19 19 20 20 21 22 23 25 25
29 28 28 29 29 30 29 29 25 22 22 22 23 20 19 22 21 19 19 18 17 16 15 18 16 16 14 14 15 17 19 19 19 20 20 20 20 20 20 20 23 24 26
29 28 27 28 29 30 30 29 23 21 21 24 23 21 20 20 20 19 18 17 17 16 16 16 17 16 16 19 21 22 23 24 23 22 22 19 19 19 21 22 25 27 29
28 27 29 29 28 29 30 28 22 20 21 23 24 23 22 20 21 21 18 18 17 15 15 17 17 18 19 20 22 23 21 21 18 19 21 22 20 20 22 22 24 28 29
28 29 28 28 28 27 30 28 24 21 21 23 23 22 20 19 21 20 20 19 16 14 15 17 17 17 18 19 21 21 22 20 20 18 20 23 23 22 20 22 22 26 28

GFSMA_sfc_30mbdewp_033.txt.gz
Dewpoint
54 54 53 51 50 48 46 44 43 43 42 42 41 40 36 35 35 35 37 41 50 50 46 49 48 46 45 44 44 43 43 43 45 44 45 45 45 44 44 44 44 45 45
54 53 50 49 47 46 45 44 44 43 43 41 37 38 36 36 33 34 35 36 44 50 49 48 46 44 43 42 41 40 41 43 42 42 45 43 41 41 41 41 42 42 43
55 52 49 48 47 45 45 45 45 44 43 40 35 35 35 35 31 31 32 38 48 50 48 43 41 41 40 40 39 39 40 40 39 44 44 41 40 39 38 39 39 39 40
54 50 47 47 47 46 45 44 43 41 41 37 35 34 36 33 32 30 29 31 38 47 45 43 40 39 39 39 38 38 39 39 37 39 40 38 38 37 37 36 36 37 38
52 47 46 47 45 43 42 41 39 39 37 36 36 34 35 32 31 29 27 30 34 39 35 34 38 37 36 35 34 33 33 34 34 37 35 34 34 33 34 34 34 35 36
48 46 46 44 42 40 39 38 36 38 38 37 35 32 32 32 32 29 27 27 27 28 28 29 31 31 37 32 30 29 29 29 30 32 30 30 30 30 31 32 32 32 33
46 45 43 42 41 39 38 38 37 36 36 35 33 32 32 32 30 29 27 24 24 24 24 24 28 28 28 31 31 29 27 27 27 28 28 28 28 28 28 30 30 30 31
45 43 42 41 39 38 38 38 37 36 38 35 32 32 29 30 31 30 27 24 22 24 24 25 24 25 26 25 32 31 31 29 28 28 28 27 28 28 28 27 28 28 29
43 43 41 40 39 39 36 37 38 37 35 35 34 32 30 27 29 29 26 23 22 23 24 24 24 25 24 24 27 26 26 25 24 25 26 26 27 27 27 28 28 28 28
40 36 34 34 34 34 34 36 37 37 37 35 34 35 32 30 28 27 26 23 24 23 24 25 25 24 25 25 25 26 27 28 23 24 25 25 26 26 27 27 27 27 27
33 32 33 34 33 34 35 35 37 38 38 35 34 34 34 32 30 28 25 23 24 25 25 26 25 25 25 25 24 25 31 34 32 28 26 26 26 27 27 27 26 26 26
32 32 32 32 33 33 31 36 37 37 37 37 36 36 34 32 29 26 25 24 24 25 26 26 25 25 25 26 28 30 30 29 28 27 27 27 27 27 27 26 25 25 26
30 30 31 31 30 30 30 33 35 36 36 36 35 35 35 33 31 29 27 27 27 26 26 26 26 26 26 25 25 27 27 26 25 25 25 26 26 25 24 23 24 26 27
30 31 30 31 30 30 29 30 31 32 36 36 36 36 36 35 34 32 30 32 32 30 26 25 25 23 23 23 24 24 23 23 22 22 24 23 23 23 24 24 25 26 27
30 30 30 29 30 29 29 30 31 32 37 36 35 35 35 35 35 35 36 35 33 27 25 23 21 22 21 21 19 20 21 22 22 21 21 22 24 23 24 25 25 26 26
32 30 29 29 28 28 28 30 31 32 32 32 33 33 33 35 36 36 35 33 33 30 25 24 20 20 20 19 18 20 21 22 22 22 23 22 22 24 25 24 25 26 25
31 29 29 28 27 27 29 30 30 31 31 30 32 31 32 34 34 34 33 29 25 25 23 19 19 19 18 18 18 20 21 21 22 22 22 22 22 22 21 24 26 27 26
30 30 29 28 28 28 28 29 29 30 31 28 29 29 30 33 33 29 26 22 20 18 17 14 17 17 17 18 18 19 20 21 21 22 21 19 18 18 18 20 28 26 27
30 29 29 28 28 28 28 29 29 30 31 29 29 29 28 27 26 25 22 19 17 17 18 17 17 18 18 18 18 20 21 21 22 19 17 16 18 19 20 21 24 23 24
30 29 29 28 29 29 29 29 30 30 29 29 30 29 28 26 24 20 19 17 16 16 17 18 18 17 18 18 19 19 17 18 17 17 17 19 19 20 21 22 21 22 23
30 30 29 29 30 31 30 30 30 29 28 27 27 25 23 20 20 18 16 15 17 18 18 17 16 17 17 16 16 15 15 16 18 18 18 19 20 21 22 23 23 23 23
31 30 31 31 31 30 30 31 30 28 26 24 23 22 19 21 23 22 22 23 20 18 15 16 15 16 15 16 15 15 17 18 16 19 19 21 21 21 22 22 23 24 24
35 33 31 28 28 30 30 31 30 27 25 23 23 22 20 20 22 24 24 21 19 19 18 16 15 15 16 15 16 18 19 20 20 21 22 20 20 20 20 21 22 24 27
35 33 29 29 29 29 30 31 30 25 22 22 23 22 21 20 22 20 18 17 17 18 16 15 16 17 17 19 19 21 23 23 22 21 20 19 19 20 21 22 23 26 28
32 29 29 28 28 28 29 31 29 23 21 21 24 23 22 21 22 23 20 18 18 18 15 17 18 19 19 19 18 19 19 19 17 17 19 20 21 21 22 23 24 24 28
28 29 27 27 28 29 29 31 30 23 21 22 23 24 25 22 21 24 21 19 19 18 15 15 17 18 18 18 17 19 20 19 17 16 20 20 20 23 21 21 22 22 26